sat.trackr.live / text

‹ back to catalog

PROTOMETHEE

NORAD 58321 · 2023-174BT

PAYLOAD ACTIVE UNKNOWN

§ Identity

Operator
Country
FR
Launch date
2023-11-11
Launch site
AFWTR
Launch vehicle
Mass (kg)
RCS (m²)

External: N2YO · Heavens-Above · Gunter

§ Orbital elements

Epoch: 2026-05-24T11:38:54.113856Z

Period
94.05 min
Inclination
97.3774°
Eccentricity
0.0005417
Mean motion
15.31022848 rev/d
Perigee alt
469.0 km
Apogee alt
476.5 km
Semi-major
6,850.9 km
B*
9.0684e-5
RAAN
223.0297°
Arg perigee
248.5361°
Mean anomaly
111.5303°
Rev number
14,134

§ Raw data

PROTOMETHEE1 58321U 23174BT  26144.48534854  .00002641  00000+0  90684-4 0  99972 58321  97.3774 223.0297 0005417 248.5361 111.5303 15.31022848141340

JSON: /api/v1/satellites/58321 · /tle

For live sub-satellite position, see the globe view (requires WebGL).

§ Visibility from observer

Set your observer location to see the next 7 days of passes ≥ 10°. The values pass through the URL so the page stays shareable.

No JS? Fill the form by hand. The geolocation button needs JavaScript.